This is the latest recevied weather packets stored in our database for station/object G7GQA-4. If no packets are shown the sender has not sent any weather packets the latest 10 day(s).
| Time | Temp. | Humidity | Pressure | Rain* | Wind** | Luminosity | Snow |
|---|---|---|---|---|---|---|---|
| 1778164228 | 15.56° C | 46% | - | 0 mm | - | 185 W/m² | - |
| 1778163627 | 15.56° C | 46% | - | 0 mm | - | 181 W/m² | - |
| 1778163027 | 16.11° C | 46% | - | 0 mm | - | 213 W/m² | - |
| 1778162428 | 16.11° C | 46% | - | 0 mm | - | 232 W/m² | - |
| 1778161827 | 16.67° C | 44% | - | 0 mm | - | 286 W/m² | - |
| 1778161227 | 16.67° C | 41% | - | 0 mm | - | 348 W/m² | - |
| 1778160627 | 16.67° C | 41% | - | 0 mm | - | 583 W/m² | - |
| 1778160027 | 17.22° C | 41% | - | 0 mm | - | 563 W/m² | - |
| 1778159428 | 17.22° C | 40% | - | 0 mm | - | 591 W/m² | - |
| 1778158827 | 17.22° C | 38% | - | 0 mm | - | 637 W/m² | - |
| 1778158228 | 17.78° C | 39% | - | 0 mm | - | 420 W/m² | - |
| 1778157628 | 16.67° C | 41% | - | 0 mm | - | 588 W/m² | - |
| 1778157028 | 16.67° C | 41% | - | 0 mm | - | 534 W/m² | - |
| 1778156427 | 16.11° C | 43% | - | 0 mm | - | 848 W/m² | - |
| 1778155828 | 15.56° C | 46% | - | 0 mm | - | 711 W/m² | - |
| 1778155227 | 16.67° C | 47% | - | 0 mm | - | 357 W/m² | - |
| 1778154628 | 16.11° C | 46% | - | 0 mm | - | 786 W/m² | - |
| 1778154028 | 16.67° C | 48% | - | 0 mm | - | 765 W/m² | - |
| 1778153428 | 16.11° C | 51% | - | 0 mm | - | 754 W/m² | - |
| 1778152828 | 15.56° C | 54% | - | 0 mm | - | 742 W/m² | - |
| 1778152227 | 14.44° C | 58% | - | 0 mm | - | 736 W/m² | - |
| 1778151627 | 14.44° C | 59% | - | 0 mm | - | 729 W/m² | - |
| 1778151027 | 14.44° C | 62% | - | 0 mm | - | 724 W/m² | - |
| 1778150427 | 13.33° C | 66% | - | 0 mm | - | 783 W/m² | - |
| 1778149827 | 12.78° C | 66% | - | 0 mm | - | 452 W/m² | - |
* Rain latest hour (hover to see other rain measurements)
** Current wind speed in m/s (hover to see current wind gust speed)